Terminal Aerodrome Forecast
Issued by NWS

Home | Current Version | Previous Version | Text Only | Print | Product List | Glossary On
Versions: 1 2 3 4 5 6 7 8 9 10 11 12 13 14 15 16 17 18 19 20 21 22 23 24 25 26 27 28 29 30 31 32 33 34 35 36 37 38 39 40 41 42 43 44 45 46 47 48 49 50
000
FTUS41 KOKX 211434 AAB
TAFSWF
TAF AMD
KSWF 211434Z 2115/2218 13008KT P6SM SCT020 BKN050
      TEMPO 2115/2116 BKN020
     FM211900 20008KT P6SM SCT100 BKN250
     FM220200 VRB04KT P6SM BKN060
     FM221400 02006KT P6SM BKN040
     AMD NOT SKED=

USA.gov is the U.S. government's official web portal to all federal, state and local government web resources and services.